Dewpoint
23 14 12 13 17 20 24 21 19 14 17 15 16 15 14 15 15 16 14 15 17 10 9 9 12 12 35 52 56 58 58 58 58 58 58 58 58 58 58 58 57 57 57 57 57 57 57 56 57 57 57 57 57 57 58 58 59 59 60 60 59 59 60 60 58 58 58 58 56 56 56 55 54 56 56 55 55 56 58 60 60 62 61 60 61 62
25 14 16 19 20 24 25 28 28 26 26 18 20 19 17 15 15 14 12 18 26 18 14 18 17 28 38 48 54 56 57 56 56 57 57 57 57 57 57 57 57 57 55 56 55 56 56 56 56 56 56 58 57 56 57 57 58 59 59 60 58 57 59 59 58 58 57 55 57 57 56 54 54 55 55 53 54 56 57 58 60 61 60 60 60 62
16 15 21 23 26 30 32 31 29 24 25 26 22 20 15 13 14 14 18 25 27 22 16 17 14 22 37 46 49 53 56 56 56 57 57 57 57 57 57 57 57 55 55 54 55 55 56 56 56 56 56 56 56 57 57 57 57 57 57 58 56 56 57 56 57 56 55 54 55 54 53 54 52 53 54 54 56 56 54 54 55 56 58 59 59 61
15 14 21 22 29 27 25 31 31 28 28 24 17 15 14 14 11 10 24 29 27 24 19 18 20 22 30 29 38 37 51 47 53 55 56 58 57 57 57 57 57 56 55 54 55 55 55 56 56 56 56 55 56 57 56 56 56 56 57 56 55 55 54 54 56 56 55 55 54 53 53 53 52 53 55 54 54 53 53 53 54 55 53 54 56 59
11 15 28 28 28 25 24 28 28 23 19 27 25 18 14 13 13 10 16 26 31 29 29 20 20 19 23 37 37 36 40 47 51 53 53 55 56 56 56 56 56 56 55 55 54 55 55 55 56 56 57 56 56 57 57 56 55 56 55 55 54 53 53 54 57 55 55 54 53 53 53 54 53 53 52 52 52 53 56 54 53 53 54 54 55 56
12 17 25 24 26 25 23 22 26 24 16 23 27 21 19 20 20 21 27 22 22 19 25 16 15 16 21 25 33 35 39 43 47 52 51 53 53 54 54 55 54 54 54 55 54 54 54 55 55 55 56 56 56 57 57 57 56 55 55 54 53 52 54 55 54 55 54 54 52 52 52 51 50 50 50 50 50 50 51 52 52 52 53 52 53 53
15 22 23 22 25 26 22 21 25 24 21 16 21 25 21 20 24 25 22 19 14 15 22 27 16 9 22 20 23 27 34 41 44 49 50 50 51 52 53 53 53 53 53 52 53 54 54 54 55 56 56 56 57 57 57 57 56 55 55 53 53 53 54 54 54 54 54 52 52 52 51 51 51 51 49 49 50 51 51 52 52 51 52 51 52 53
19 20 24 27 28 26 23 20 26 22 18 16 23 25 21 22 22 24 26 21 16 27 30 26 20 15 14 18 25 28 32 39 41 45 48 49 50 51 51 53 53 53 53 53 53 54 54 54 56 56 57 57 57 57 58 57 57 56 55 54 54 55 55 53 54 54 53 52 52 51 51 52 51 51 51 51 51 52 54 51 51 50 50 51 51 53
25 20 23 23 25 21 20 22 28 22 18 18 27 22 21 19 26 25 22 24 25 16 13 21 25 16 16 21 27 31 31 35 39 42 45 46 49 50 50 52 53 53 53 53 53 53 54 54 55 56 57 56 57 58 58 58 57 56 56 56 54 54 53 52 53 53 53 53 52 52 52 51 51 51 52 53 53 51 51 50 49 49 49 50 50 51
21 17 17 20 19 16 21 22 26 22 18 22 28 23 26 28 29 26 23 18 20 14 11 18 25 13 15 22 20 24 31 34 37 39 42 44 46 48 49 51 52 52 52 52 53 53 54 54 55 55 56 56 57 57 58 58 57 57 56 56 54 53 52 52 52 52 52 53 53 51 51 51 52 53 51 51 51 49 49 48 48 48 49 49 50 50
19 34 30 18 15 19 23 24 24 20 22 23 19 16 16 19 23 28 22 24 20 9 14 21 26 16 13 20 21 20 21 23 26 27 32 39 43 46 47 50 51 51 52 52 52 53 53 53 55 56 57 56 56 57 58 57 57 57 57 56 54 53 53 52 51 51 52 52 52 51 51 52 52 51 51 51 50 49 48 48 47 48 48 48 49 50
20 18 19 19 26 17 17 9 9 16 19 18 19 18 15 15 19 18 20 19 13 10 17 21 24 20 11 16 22 28 28 29 28 26 27 32 38 43 46 49 51 51 51 52 52 52 52 54 54 55 56 56 56 57 57 57 57 57 57 56 54 52 52 51 50 51 51 52 52 52 52 52 52 52 51 51 50 49 48 47 48 47 47 47 48 49
20 17 15 17 38 14 11 10 7 10 14 17 19 17 16 10 13 9 15 8 8 13 18 24 25 17 17 20 24 30 33 35 32 29 28 31 32 41 45 49 50 50 51 52 52 52 52 54 54 55 55 55 56 57 57 57 57 57 56 55 54 53 52 51 50 51 51 51 52 52 52 53 53 52 52 51 50 49 48 48 48 47 47 47 47 48
16 21 16 16 14 25 12 13 7 6 9 14 14 17 13 6 4 4 8 10 16 18 21 23 25 16 21 23 29 36 40 43 43 43 43 41 38 44 48 48 48 49 50 51 51 51 51 53 54 55 55 55 56 57 57 57 57 57 56 56 54 53 53 52 51 50 50 51 52 52 53 53 53 52 52 52 51 50 49 48 48 47 47 46 46 47
7 11 12 14 14 17 12 13 8 17 12 10 15 13 16 14 7 2 11 5 11 17 20 23 17 15 16 20 29 35 39 44 45 45 45 46 47 47 48 49 49 49 49 50 50 49 49 51 51 53 54 55 56 57 57 57 57 57 56 55 54 53 54 53 52 52 51 52 52 53 53 53 53 53 52 52 52 51 49 49 48 47 47 47 47 47
10 13 16 18 17 11 10 14 13 10 10 14 16 13 13 14 20 9 16 17 18 15 14 15 14 21 23 27 33 37 44 45 45 46 46 46 47 48 48 48 49 49 50 51 51 51 51 51 51 52 54 55 56 57 57 57 56 56 55 54 55 55 54 54 53 52 52 53 53 53 53 53 54 54 53 53 52 51 50 49 49 48 48 48 48 48
13 11 15 19 13 11 9 13 10 7 12 16 7 12 16 20 21 17 16 20 14 15 10 16 20 23 25 27 29 35 42 42 44 44 46 46 47 48 48 49 49 49 50 50 51 51 51 51 51 52 53 54 55 56 57 57 56 55 54 55 55 55 56 55 53 53 53 54 53 53 53 54 53 53 53 53 52 51 51 50 49 49 49 49 49 49
15 16 22 12 12 13 16 11 11 13 11 9 10 11 21 25 25 21 12 12 7 7 10 16 16 21 22 20 29 35 40 40 42 43 44 44 46 47 47 48 49 50 50 50 51 50 51 51 51 52 52 54 55 55 56 56 54 55 55 56 56 56 55 55 55 54 54 53 53 53 53 53 53 53 53 53 52 52 52 51 50 50 50 50 51 51
18 9 12 14 13 14 17 11 11 14 13 9 13 14 14 10 9 12 17 6 6 5 5 14 16 18 22 22 25 29 37 39 41 42 43 44 44 45 46 47 48 50 50 50 50 49 50 50 50 51 52 53 54 55 56 55 55 56 56 57 57 56 55 55 55 54 54 54 54 54 54 54 53 54 54 55 54 53 53 52 51 50 50 50 51 52
24 13 16 15 14 15 17 13 8 16 12 12 12 12 18 22 22 12 14 19 14 2 5 14 18 15 22 25 27 26 34 38 40 40 42 43 45 45 45 46 48 48 49 49 49 49 49 49 49 50 52 53 53 53 54 54 54 55 56 55 55 55 54 54 54 54 54 55 55 54 54 54 53 53 54 54 53 53 52 50 51 51 50 51 52 51
13 20 9 16 17 13 10 16 16 13 10 11 12 9 17 20 22 18 20 13 13 8 4 7 7 16 22 27 30 29 30 31 40 41 41 43 44 45 46 47 48 48 48 47 47 48 49 49 49 50 50 51 52 52 53 54 54 54 55 54 54 54 54 54 54 55 54 54 55 54 53 53 53 53 54 54 54 53 53 52 52 51 51 51 51 51
18 12 15 24 16 15 14 18 14 12 11 15 18 13 17 15 14 10 7 20 18 14 7 8 7 18 24 35 35 32 34 33 37 42 42 43 44 44 45 46 47 48 47 47 47 48 48 48 49 50 50 51 52 52 52 52 53 53 53 53 53 53 53 53 54 54 53 54 54 54 54 53 53 53 53 53 54 53 53 53 53 52 51 50 51 51
22 23 20 13 18 14 13 14 19 15 15 16 17 16 22 21 18 14 8 13 19 21 17 17 13 18 28 32 35 37 35 35 40 44 43 43 43 43 44 46 46 46 47 47 47 47 47 48 48 49 50 49 49 50 51 51 53 53 53 53 53 53 53 53 53 54 53 54 54 53 53 53 53 53 53 53 53 53 53 53 53 53 52 51 51 52
46 20 19 12 20 19 20 22 18 19 18 15 16 23 20 15 17 17 18 20 17 16 12 11 10 16 26 36 38 37 37 39 41 44 44 44 44 44 45 45 46 46 46 46 46 47 46 47 48 49 50 50 49 49 49 49 50 51 52 53 52 53 52 53 53 53 53 53 53 53 53 52 52 53 53 53 53 53 53 53 53 54 54 53 52 51
14 18 17 14 12 13 17 17 15 18 16 17 14 18 22 23 24 24 22 22 17 18 17 14 8 13 27 36 38 39 40 41 42 42 43 44 43 44 45 45 45 46 46 47 47 46 46 47 47 47 47 48 48 48 48 49 50 51 52 52 52 52 52 53 53 53 53 53 53 53 53 52 53 53 53 53 53 53 54 54 54 55 55 54 53 53
19 22 23 14 9 5 4 5 8 8 12 15 20 20 21 18 18 15 12 15 11 15 17 12 8 22 27 30 30 31 35 39 40 41 42 42 43 43 44 44 44 46 46 45 44 45 45 45 45 46 46 46 47 47 48 49 50 52 53 52 52 52 52 52 52 53 53 53 52 52 52 52 52 53 53 53 53 53 54 54 54 54 55 55 54 54
26 28 24 23 14 11 14 16 21 23 20 15 14 18 19 23 24 20 18 13 12 15 12 18 23 25 25 26 28 30 32 36 37 39 40 41 41 42 42 43 44 44 45 44 44 43 43 43 43 43 44 44 44 44 46 48 50 51 52 53 53 53 53 52 52 52 53 52 52 52 51 51 52 52 52 53 53 54 54 54 54 54 54 55 54 54
29 24 25 23 20 16 17 17 17 19 16 16 19 18 21 22 23 20 12 10 19 17 10 19 24 24 24 26 28 29 31 32 32 33 34 37 38 39 39 40 43 41 41 41 41 42 42 41 41 42 42 43 43 43 43 45 48 50 51 52 52 53 52 51 51 51 51 51 51 51 51 51 52 52 52 53 53 53 53 53 53 54 54 54 54 54
28 22 24 27 20 19 18 17 20 22 22 23 25 24 22 24 23 16 16 20 19 13 15 20 24 23 23 26 28 29 31 31 32 33 34 35 37 39 39 39 39 39 38 38 38 38 39 39 39 40 40 41 41 41 42 43 44 46 47 49 51 51 51 51 51 51 50 49 50 50 50 51 51 51 52 52 52 52 52 53 53 53 54 53 53 54
29 24 25 24 19 19 19 20 22 22 23 24 25 25 24 25 25 26 25 25 22 20 23 25 25 24 24 26 28 29 31 32 33 34 36 37 37 38 38 38 39 39 38 37 37 37 37 37 37 37 38 38 38 39 39 40 41 41 44 46 48 49 49 51 50 50 49 49 49 49 49 50 50 51 50 51 51 51 51 52 52 52 51 52 52 52
27 22 29 28 25 23 25 29 28 27 26 25 25 26 25 24 24 25 25 26 25 24 24 25 24 24 26 28 28 29 29 30 31 32 34 35 37 38 38 38 39 38 38 38 38 37 37 37 36 35 34 34 35 36 37 38 38 40 41 41 44 46 47 49 49 49 49 49 48 48 49 50 50 50 50 49 50 50 51 51 52 52 52 51 51 52
29 19 28 27 21 20 22 28 27 28 26 26 26 27 27 25 23 26 23 25 22 22 24 23 22 20 25 27 27 27 26 27 28 29 32 34 36 37 37 38 38 39 39 39 40 40 40 40 39 37 34 33 33 33 34 36 35 36 37 37 38 41 43 46 47 47 47 47 46 46 47 47 48 49 50 49 49 49 49 50 50 51 51 51 51 51
25 23 20 21 19 17 19 23 25 24 22 19 21 26 27 26 26 25 25 26 27 24 22 20 22 23 24 31 24 24 25 25 25 26 28 31 34 36 36 36 37 38 39 39 39 39 40 40 40 39 39 36 34 34 34 35 34 34 36 37 38 39 38 39 41 42 43 43 44 45 45 45 46 46 46 46 47 46 46 47 48 49 49 51 52 51
27 22 20 22 16 15 19 22 22 16 9 13 23 28 29 26 26 23 23 24 25 27 23 24 25 26 26 25 24 24 23 24 25 26 28 28 28 29 31 34 35 35 36 37 38 39 40 39 39 39 39 39 39 38 37 38 37 36 37 38 37 36 36 36 36 37 37 38 39 41 42 43 44 44 43 43 43 44 44 44 44 44 44 45 47 48
23 22 18 21 16 14 18 18 14 8 11 23 27 28 29 26 24 22 23 24 25 25 25 24 24 25 26 26 25 24 24 23 23 23 24 26 27 26 26 27 29 31 31 31 30 32 35 39 40 41 41 41 42 40 38 37 38 37 36 37 37 37 37 37 37 37 37 37 38 39 38 39 40 41 40 40 41 42 42 42 39 41 41 42 43 44
18 21 18 15 13 13 11 8 7 7 21 26 28 28 29 28 26 23 21 22 24 24 25 22 23 24 25 26 26 26 23 21 21 23 23 24 27 28 27 28 28 30 30 32 31 32 34 36 39 41 43 43 42 41 39 39 40 38 37 39 39 39 38 38 39 39 39 38 38 39 39 39 38 39 39 39 38 39 39 39 40 40 39 39 39 39
25 22 21 14 17 13 9 6 10 22 23 23 22 24 24 23 24 21 18 18 24 23 24 22 22 23 23 23 25 26 27 24 19 20 22 23 25 27 26 29 28 32 31 31 31 31 32 32 36 40 40 37 37 36 37 39 41 39 37 37 36 35 36 37 36 37 38 39 39 41 40 39 39 39 38 37 37 37 37 37 37 38 39 38 38 39
22 15 20 18 13 15 15 12 11 7 9 18 23 25 27 28 27 25 19 18 23 22 25 22 21 22 22 22 22 24 26 23 18 18 20 23 24 26 27 28 27 28 27 27 28 29 29 30 30 33 34 32 32 33 34 35 40 39 37 38 38 37 37 36 36 37 38 37 36 37 38 39 39 39 39 38 36 37 38 38 38 38 40 39 40 41
24 22 21 20 13 12 9 10 7 8 9 14 22 24 26 26 27 24 21 17 21 22 23 22 21 22 22 20 21 25 24 19 17 21 21 23 24 26 26 26 26 27 27 27 27 28 29 30 33 34 31 32 31 31 33 34 36 36 36 37 38 39 39 39 38 39 39 40 40 39 37 39 40 39 39 38 38 39 38 38 38 39 40 39 41 41
22 21 19 14 12 10 8 8 8 4 15 21 24 25 26 26 26 21 13 10 19 22 22 22 21 21 22 24 21 20 21 15 18 20 22 24 26 28 28 27 28 27 27 27 28 30 31 34 29 29 28 28 29 30 30 31 31 35 34 35 36 37 37 38 41 42 42 42 42 41 39 40 41 40 39 38 39 39 38 40 40 39 39 38 39 39
17 18 20 12 11 15 16 13 17 19 22 25 24 26 23 26 22 14 11 15 21 23 22 22 22 22 22 21 21 17 19 20 22 23 26 27 28 28 30 31 31 30 28 28 28 34 29 29 29 29 28 28 29 30 31 31 30 32 33 34 33 32 33 34 35 37 37 38 39 39 40 40 40 40 41 40 40 39 41 40 39 39 39 39 37 38
13 13 17 16 15 11 11 16 17 17 20 23 25 27 25 23 16 12 16 22 24 22 23 24 23 23 23 22 21 21 22 26 29 26 25 26 27 28 29 29 29 29 29 31 33 33 30 30 30 30 29 29 31 33 31 31 30 32 32 32 31 30 32 33 34 35 36 36 36 36 37 38 38 38 39 40 40 39 39 39 39 39 39 38 38 37
14 12 16 12 14 11 8 11 12 12 18 26 26 22 25 17 15 21 25 26 26 24 25 24 25 24 25 25 25 24 25 26 26 26 27 28 28 28 29 29 29 29 29 29 29 30 32 30 30 30 30 30 31 32 32 31 31 32 33 31 31 32 32 33 34 34 34 35 35 36 36 37 38 38 39 39 39 38 38 39 40 39 40 39 38 38
17 16 15 14 20 11 10 10 11 16 22 28 24 18 22 25 24 27 28 26 30 29 27 27 27 27 27 27 27 27 28 27 27 27 28 28 29 29 29 29 29 29 30 30 30 31 33 31 31 30 30 30 31 32 32 31 31 33 33 32 32 33 34 34 34 34 35 36 36 36 36 36 37 38 38 38 38 38 37 39 40 40 40 39 39 37
18 20 19 16 23 18 16 19 23 27 29 30 29 27 29 31 33 34 32 30 29 29 32 30 29 29 29 28 29 27 28 28 27 27 27 27 28 28 29 29 29 30 30 30 30 32 31 31 31 31 31 31 31 32 32 32 31 33 33 33 34 34 34 34 34 34 34 33 34 35 36 37 37 37 37 38 38 37 37 38 39 39 37 38 37 37
21 23 23 24 24 26 27 28 30 30 31 29 31 33 32 32 33 33 32 29 31 30 29 29 29 29 29 29 30 28 28 28 27 28 28 28 28 28 29 29 29 29 29 30 30 30 31 30 30 30 31 32 32 33 34 33 33 32 33 33 34 34 34 34 35 34 34 34 34 34 34 35 35 35 36 37 37 37 36 37 38 39 38 38 38 38
19 18 21 21 23 17 17 24 25 26 26 27 28 29 30 30 30 30 29 29 30 30 30 30 29 29 29 29 28 27 27 26 27 27 27 27 27 27 28 28 29 29 28 28 29 30 29 29 29 29 30 30 31 32 33 33 34 34 34 34 34 34 34 34 35 35 35 34 34 34 34 35 34 34 35 35 35 35 36 36 37 37 39 39 38 37
14 19 18 19 18 9 9 23 24 24 25 26 26 27 28 29 30 30 30 30 30 30 30 29 28 29 28 27 27 27 26 25 25 26 26 26 27 27 27 28 28 28 28 28 28 29 28 28 28 28 29 29 29 31 32 33 33 34 34 34 34 34 34 34 34 34 34 34 34 34 34 35 34 35 35 35 36 36 34 34 35 37 38 38 38 38
16 22 8 17 20 20 21 22 24 24 24 25 26 27 26 27 28 28 28 27 27 27 27 27 27 27 27 27 26 25 25 25 25 25 25 26 26 26 27 27 27 27 27 27 27 28 28 28 28 28 28 29 29 30 30 31 31 32 33 33 34 34 34 34 34 34 34 34 34 34 35 35 35 35 36 35 33 32 32 35 35 36 36 36 37 40
20 17 16 17 14 12 15 21 24 16 13 22 24 26 27 28 28 27 27 27 27 27 26 26 26 26 26 27 27 25 25 25 25 25 26 26 26 26 27 27 27 27 27 27 28 27 27 28 28 28 29 29 29 29 29 29 30 31 31 32 33 34 33 34 34 34 34 34 33 34 34 34 34 35 35 36 35 34 33 32 34 34 35 36 37 37
17 17 16 3 8 7 16 23 25 21 20 22 25 26 27 28 28 27 27 27 27 27 26 25 25 25 25 25 26 26 25 25 26 26 26 27 26 27 27 28 28 28 28 28 28 27 27 28 29 29 29 29 30 30 30 30 30 30 30 30 31 32 32 33 33 33 33 34 33 33 33 33 33 33 33 34 35 35 34 33 34 33 34 34 35 35